Location: Baumgartsau
(48.4586°N, 14.0864°E)
Time: 15:53:29
(UTC+00:00)

Cosmos 1741 Rocket - Pass Details

Date: 09 April 2020
Orbit: 762 x 782 km, 74.0° (Epoch: 02 June)

Event Time Altitude Azimuth Distance (km) Brightness Sun altitude
Exits shadow 19:40:57 23° 167° (SSE) 1,621 5.3 -18.0°
Maximum altitude 19:43:58 47° 105° (ESE) 1,033 4.2 -18.4°
Drops below altitude 10° 19:49:03 10° 33° (NNE) 2,347 6.6 -19.1°
Sets 19:51:31 0° 28° (NNE) 3,278 7.4 -19.4°
